Regional Weather Roundup
Issued by NWS

Home | Current Version | Previous Version | Text Only | Print | Product List | Glossary Off
Versions: 1 2 3 4 5 6 7 8 9 10 11 12 13 14 15 16 17 18 19 20 21 22 23 24 25 26 27 28 29 30 31 32 33 34 35 36 37 38 39 40 41 42 43 44 45 46 47 48 49 50

000
ASUS43 KDMX 170806
RWRIA

WEATHER ROUNDUP FOR IOWA
NATIONAL WEATHER SERVICE DES MOINES IA
200 AM CST SUN DEC 17 2017

NOTE: "FAIR" INDICATES FEW OR NO CLOUDS BELOW 12,000 FEET WITH NO
SIGNIFICANT WEATHER AND/OR OBSTRUCTIONS TO VISIBILITY.

* - THESE STATIONS ARE NOT NWS STATIONS...THUS NOT UNDER NWS
QUALITY CONTROL.  THEY ALSO DO NOT REPORT WEATHER SUCH
AS PRECIPITATION OR FOG.

IAZ001>003-012>014-020>022-031>034-043>046-170900-
   NORTHWEST IOWA

CITY           SKY/WX    TMP DP  RH WIND       PRES   REMARKS
CARROLL *      MOCLDY    27  25  93 N6        29.99S WCI  20
CHEROKEE *     MOCLDY    26  26  99 NE7       30.03R FOG     WCI  18
LE MARS *      CLOUDY    25  25 100 N10       30.02S WCI  15
ORANGE CITY *  CLOUDY    27  27 100 NE9       30.02S FOG     WCI  17
SHELDON *      CLOUDY    25  25 100 NE10G17   30.01S FOG     WCI  15
SIOUX CITY     CLOUDY    28  26  92 N9        30.01F WCI  19
SPENCER        FOG       27  26  96 N14       30.03F VSB 3/4 WCI  16
STORM LAKE *   FOG       25  25 100 NE14      29.99S VSB 1/4 WCI  13
$$

IAZ055>058-069>071-079>083-090>094-170900-
   SOUTHWEST IOWA

CITY           SKY/WX    TMP DP  RH WIND       PRES   REMARKS
ATLANTIC *     CLOUDY    30  27  86 N8        29.97S WCI  23
AUDUBON *      CLOUDY    28  25  86 CALM      29.98S
CLARINDA *       N/A     30  25  80 CALM      29.97
COUNCIL BLFS * PTCLDY    32  32 100 NE8       29.96S WCI  25
CRESTON *      CLOUDY    32  27  80 NE12      29.97S WCI  23
HARLAN  *      PTCLDY    30  28  93 NE7       30.01S WCI  23
LAMONI         MOCLDY    34  25  69 N5        29.96R WCI  30
RED OAK *      CLOUDY    32  27  80 NE3       29.97R
SHENANDOAH *   CLOUDY    32  25  74 NE6       29.96S WCI  26
$$

IAZ047>049-059>061-072>074-084-170900-
   CENTRAL IOWA

CITY           SKY/WX    TMP DP  RH WIND       PRES   REMARKS
AMES           CLOUDY    29  25  85 NE5       30.00R WCI  24
ANKENY *       CLOUDY    28  23  80 N7        30.00R WCI  21
BOONE *        PTCLDY    27  23  86 NE8       29.98R WCI  18
CHARITON *     CLOUDY    32  25  74 CALM      29.96F
DES MOINES     CLOUDY    33  25  72 NE3       29.98S
GRINNELL*      CLOUDY    30  24  79 NE9       30.00R WCI  22
KNOXVILLE *    CLOUDY    32  23  69 E5        29.96F WCI  27
MARSHALLTOWN   CLOUDY    29  24  82 E12       30.00R WCI  19
NEWTON *       CLOUDY    30  25  80 NE9       29.98S WCI  22
PELLA *        CLOUDY    29  23  77 CALM      29.99S
PERRY *          N/A     28  24  85 N3        29.99R
$$

IAZ004>006-015-016-023>025-035-036-170900-
   NORTH CENTRAL IOWA

CITY           SKY/WX    TMP DP  RH WIND       PRES   REMARKS
ALGONA *       CLOUDY    27  27 100 NE12      30.02S FOG     WCI  16
CLARION *      CLOUDY    27  27 100 NE9       30.01S WCI  17
ESTHERVILLE    FOG       26  26 100 N13       30.03F VSB 3/4 WCI  15
FORT DODGE *   PTCLDY    25  23  92 N8        30.01S WCI  16
MASON CITY     CLOUDY    20  18  92 N7        30.04F WCI  11
FOREST CITY *    N/A     25  23  93 NE3       30.02S
WEBSTER CITY * PTCLDY    25  23  93 N7        29.98S WCI  17
IOWA FALLS *     N/A     28  25  87 NE6       30.02R WCI  22
$$

IAZ007>011-017>019-026>030-037>042-050>054-066-170900-
   NORTHEAST IOWA

CITY           SKY/WX    TMP DP  RH WIND       PRES   REMARKS
CEDAR RAPIDS   CLOUDY    29  25  85 NE8       30.01R WCI  21
CHARLES CITY * FOG       27  27 100 E10       30.03S VSB 1   WCI  17
CLINTON *      CLOUDY    28  26  92 NE13      30.04S WCI  17
DECORAH *      CLOUDY    28  28 100 E9        30.03F FOG     WCI  20
DUBUQUE        CLOUDY    30  28  92 NE12      30.04R FOG     WCI  20
MONTICELLO *   CLOUDY    30  28  93 NE5       30.05R FOG     WCI  25
OELWEIN *      CLOUDY    28  28 100 E13       30.04R FOG     WCI  18
WATERLOO       CLOUDY    25  23  92 E5        30.03R WCI  19
$$

IAZ064-065-067-068-078-170900-
   EAST CENTRAL IOWA

CITY           SKY/WX    TMP DP  RH WIND       PRES   REMARKS
DAVENPORT      CLOUDY    29  24  82 E8        30.05R WCI  21
IOWA CITY      CLOUDY    32  26  78 NE5       30.03R WCI  27
MT. PLEASANT * CLOUDY    33  24  71 CALM      30.00R
MUSCATINE *    CLOUDY    27  23  86 NE6       30.02S WCI  20
QUAD CITIES    CLOUDY    27  23  85 E5        30.02S WCI  22
$$

IAZ062-063-075>077-085>089-095>099-170900-
   SOUTHEAST IOWA

CITY           SKY/WX    TMP DP  RH WIND       PRES   REMARKS
BURLINGTON     CLOUDY    35  27  72 CALM      30.00R
FAIRFIELD *    CLOUDY    32  25  74 CALM      29.98R
FORT MADISON * CLOUDY    41  28  60 SW7       30.01R
KEOKUK *       CLOUDY    41  27  56 SW6       29.99S
OSKALOOSA *      N/A     31  24  74 CALM      29.98F
OTTUMWA        CLOUDY    32  24  72 E3        29.97F
WASHINGTON *   CLOUDY    30  27  86 NE6       30.01S WCI  24
$$

ABBREVIATIONS USED IN REMARKS
   TC - TEMPERATURES IN CELSIUS
  WCI - WIND CHILL INDEX
   HX - HEAT INDEX
  VSB - VISIBILITY
$$





USA.gov is the U.S. government's official web portal to all federal, state and local government web resources and services.